Home   Weather   Merida   Past weeks

Flag for Mexico Past Weather in Merida, Yucatán, Mexico — Yesterday and Last 2 Weeks

Now
77 °F

Light rain. Mostly cloudy.


Feels Like: 78 °F
Forecast: 73 / 87 °F
Wind: 5 mph from Northeast

Location: Aerop. Internacional Merida - Yuc

Current Time: Dec 8, 2016 at 10:14:11 pm

Latest Report: Dec 8, 2016 at 9:54 pm


Visibility: 6 mi

Pressure: 30.07 "Hg

Humidity: 94%

Dew Point: 75 °F

Location of MeridaLocation

Past Weather in Merida — Graph

°F

Merida Temperature Yesterday

Maximum temperature yesterday: 93 °F (at 1:47 pm)
Minimum temperature yesterday: 75 °F (at 4:51 am)
Average temperature yesterday: 81 °F

High & Low Weather Summary for the Past Weeks

 TemperatureHumidityPressure
High95 °F (Dec 1, 2:45 pm)94% (Nov 27, 4:47 am)30.14 "Hg (Nov 27, 4:47 am)
Low64 °F (Nov 28, 4:48 am)30% (Dec 2, 2:54 pm)29.45 "Hg (Nov 25, 5:48 pm)
Average79 °F74%29.94 "Hg
* Reported Nov 23 8:45 pm — Dec 8 8:46 pm, Merida, Weather by CustomWeather, © 2016

Note: Actual official high and low records may vary slightly from our data, if they occured in-between our weather recording intervals... More about our weather records

Advertising

Merida Weather History for the Previous 24 Hours

Scroll right to see more
 ConditionsComfort  
Time TempWeatherWind HumidityBarometerVisibility
8:46 pm
Thu, Dec 8
77 °FMostly cloudy.5 mph94%30.04 "Hg7 mi
7:44 pm75 °FMostly cloudy.5 mph94%30.02 "Hg7 mi
6:51 pm77 °FLight rain. Overcast.6 mph94%30.01 "Hg6 mi
6:30 pm75 °FLight rain. Overcast.12 mph94%30.00 "Hg6 mi
6:11 pm75 °FRain. Overcast.5 mph94%30.00 "Hg3 mi
6:03 pm81 °FRain. Overcast.5 mph74%30.00 "Hg4 mi
3:44 pm90 °FPartly sunny.8 mph49%29.93 "Hg7 mi
2:42 pm91 °FPartly sunny.5 mph44%29.92 "Hg7 mi
1:51 pm93 °FPartly sunny.7 mph44%29.94 "Hg7 mi
12:45 pm93 °FPartly sunny.10 mph47%29.96 "Hg7 mi
11:49 am91 °FPartly sunny.17 mph49%30.00 "Hg7 mi
10:50 am88 °FPartly sunny.12 mph62%30.03 "Hg7 mi
9:46 am82 °FPartly sunny.9 mph74%30.06 "Hg6 mi
8:53 am79 °FLow clouds.9 mph84%30.04 "Hg3 mi
7:51 am75 °FFog.8 mph94%30.04 "Hg2 mi
6:58 am73 °FFog.7 mph94%30.03 "Hg1 mi
5:48 am73 °FPassing clouds.5 mph94%29.99 "Hg7 mi
4:48 am73 °FPassing clouds.9 mph94%29.98 "Hg7 mi
3:54 am75 °FPartly cloudy.8 mph94%29.98 "Hg7 mi
2:48 am73 °FPartly cloudy.5 mph94%29.98 "Hg7 mi
1:48 am75 °FPartly cloudy.5 mph89%29.98 "Hg7 mi
12:48 am77 °FPassing clouds.7 mph89%29.99 "Hg7 mi
11:48 pm
Wed, Dec 7
79 °FPassing clouds.14 mph84%29.98 "Hg7 mi
10:48 pm79 °FMostly cloudy.5 mph79%30.00 "Hg7 mi
Weather by CustomWeather, © 2016

See weather overviewHow to use our weather pages